Location: ???????
(55.5931°N, 39.3286°E)
Time: 22:54:04
(UTC+00:00)

Sich 1 - Visible Passes

Search period start: 17 July 2024 00:00
Search period end: 27 July 2024 00:00
Orbit: 583 x 612 km, 82.5° (Epoch: 17 July)

Date Brightness Start Highest point End Pass type
(mag) Time Alt. Az. Time Alt. Az. Time Alt. Az.
19 Jul 5.7 23:33:38 10° ESE 23:35:56 14° E 23:38:13 10° NE visible
20 Jul 5.4 23:43:08 10° SE 23:46:14 20° E 23:49:21 10° NE visible
21 Jul 4.9 23:52:57 10° SSE 23:56:35 28° E 00:00:13 10° NNE visible
23 Jul 4.3 00:02:59 10° SSE 00:06:58 39° E 00:10:57 10° NNE visible
24 Jul 3.6 00:13:12 10° S 00:17:23 57° E 00:21:34 10° NNE visible
24 Jul 5.7 22:49:20 10° ESE 22:51:09 12° E 22:52:57 10° NE visible
25 Jul 3.1 00:23:34 10° S 00:27:50 83° E 00:32:07 10° NNE visible
25 Jul 5.4 22:58:33 10° SE 23:01:23 18° E 23:04:14 10° NE visible
26 Jul 4.9 23:08:14 10° SE 23:11:40 24° E 23:15:07 10° NNE visible
